Terug naar catalogus

CZ-6A DEB

ActiefSSO
NORAD 54331·DEBRIS·🇨🇳 China

Gelanceerd Nov 11, 2022 vanaf Taiyuan Satellite Launch Center

Loading…

Volgende Passages (komende 24 uur)

TLE

VersSource: Space-Track

Epoch: Sep 14, 2026, 09:07 UTC

1 54331U 22151CA  26257.38023498  .00000448  00000-0  33649-3 0  9990
2 54331  98.9163 224.6456 0120190 191.0705 168.7809 13.96149629194877

Volg CZ-6A DEB in realtime met AllMySat

Download on the App Store